OneWeb SL0210

operational
NORAD ID: 48787 Int'l Des: 2021-045 Owner: ONEWEBN Country: UK Constellation: oneweb
LEOCIRCULARPOLARONEWEB_TYPE

OneWeb SL0210について

説明を読み込み中...

リアルタイム位置

3D地球を読み込み中...

次回通過

高度履歴

Altitude vs Time

uPlot chart will show altitude changes over time

軌道要素

1 48787U 21045W 25304.06740699 .00000035 00000-0 59377-4 0 9994
2 48787 87.8969 304.8961 0001917 112.5096 247.6237 13.15548684214199
Epoch: Oct 31, 2025 • Age: 17 hours

現在のステータス

高度 1205.5 km
速度 7.25 km/s
衛星直下点 31.68°N, 7.34°W
打ち上げ日 May 28, 2021
運用期間 4.4 years
タイプ internet

技術仕様

分類 Payload
質量 148.00 kg
乾燥質量 140.00 kg
総質量 148.00 kg
長さ 1.30 m
直径 1.00 m
スパン 5.00 m
形状 Trapezoid+2 pan
製造者 ONEWUS
バスタイプ ARROW
フェーズステータス In Orbit
所有者/国 ONEWEBN/UK

大規模コンステレーション

Loading constellations...